Tracking 19795 objects as of 17-Jul-2019
HD Live streaming from Space Station
objects crossing your sky now

THOR 3

Track THOR 3 now!
THOR 3 is classified as:


NORAD ID: 25358
Int'l Code: 1998-035A
Perigee: 36,197.3 km
Apogee: 36,208.3 km
Inclination: 7.1 °
Period: 1,457.0 minutes
Semi major axis: 42573 km
RCS: 23.5207 m2 (large)
Launch date: June 10, 1998
Source: Norway (NOR)
Launch site: AIR FORCE EASTERN TEST RANGE (AFETR)

14 Ku-band; Nordic region, central and eastern Europe.
aabbcc
Your satellite tracking list
Your tracking list is empty




NASA's NSSDC Master Catalog

Two Line Element Set (TLE):
1 25358U 98035A   19198.42004809 -.00000084  00000-0  00000+0 0  9995
2 25358   7.1459  55.5939 0001288  84.1255 146.6294  0.98830142 77372
Source of the keplerian elements: AFSPC